Tracking 26218 objects as of 26-Sep-2022
HD Live streaming from Space Station
objects crossing your sky now

STARLINK-3389

Track STARLINK-3389 now!
10-day predictions
STARLINK-3389 is classified as:


NORAD ID: 51124
Int'l Code: 2022-005W
Perigee: 545.7 km
Apogee: 548.0 km
Inclination: 53.2 °
Period: 95.4 minutes
Semi major axis: 6917 km
RCS: Unknown
Launch date: January 19, 2022
Source: United States (US)
Launch site: AIR FORCE EASTERN TEST RANGE (AFETR)
aabbcc
Your satellite tracking list
Your tracking list is empty




NASA's NSSDC Master Catalog

Two Line Element Set (TLE):
1 51124U 22005W   22268.08601856  .00001624  00000-0  12008-3 0  9993
2 51124  53.2170 202.6893 0001690  51.7499 308.3645 15.08848669 38289
Source of the keplerian elements: AFSPC